EW8711 Weather Reports


Display with metric or nautical units.
time (UTC)temp
F
wind
direction
speed
MPH
gust
MPH
rain 1hr
in
rain 24hr
in
rain mn
in
humidity
%
barometer
mb
20180621024936 74 225 0.0 0.0 0.00 0.00 0.00 79 1009.5
20180621024418 74 180 0.0 0.0 0.00 0.00 0.00 79 1009.4
20180621023912 74 180 0.0 0.0 0.00 0.00 0.00 78 1009.4
20180621023359 74 158 0.0 0.0 0.00 0.00 0.00 78 1009.4
20180621022849 74 135 0.0 0.0 0.00 0.00 0.00 78 1009.4
20180621022346 74 158 0.0 0.0 0.00 0.00 0.00 78 1009.4
20180621021838 74 270 0.0 0.0 0.00 0.00 0.00 78 1009.0
20180621021338 74 270 0.0 0.0 0.00 0.00 0.00 78 1009.0
20180621020818 75 135 0.0 0.0 0.00 0.00 0.00 77 1008.9
20180621020309 75 180 0.0 0.0 0.00 0.00 0.00 77 1008.9
20180621015806 75 22 0.0 0.0 0.00 0.00 0.00 77 1008.9
20180621015256 75 180 0.0 0.0 0.00 0.00 0.00 76 1009.0
20180621014732 75 180 0.0 0.0 0.00 0.00 0.00 76 1009.0
20180621014212 75 180 0.0 0.0 0.00 0.00 0.00 76 1009.1
20180621013702 75 180 0.0 0.0 0.00 0.00 0.00 76 1009.1
20180621013159 75 180 0.0 0.0 0.00 0.00 0.00 76 1009.1
20180621012651 75 180 0.0 0.0 0.00 0.00 0.00 75 1009.1
20180621012130 76 225 0.0 0.0 0.00 0.00 0.00 75 1009.1
20180621011614 76 158 0.0 0.0 0.00 0.00 0.00 75 1009.1
20180621011110 76 202 0.0 0.0 0.00 0.00 0.00 75 1009.1
20180621010601 76 225 0.0 0.0 0.00 0.00 0.00 74 1009.0
20180621010059 76 180 0.0 0.0 0.00 0.00 0.00 74 1009.0
20180621005540 76 180 0.0 0.0 0.00 0.00 0.00 74 1009.3
20180621005027 76 270 0.0 0.0 0.00 0.00 0.00 74 1009.3
20180621004508 76 202 0.0 0.0 0.00 0.00 0.00 74 1009.3
20180621003956 77 158 0.0 0.0 0.00 0.00 0.00 74 1009.4
20180621003454 77 180 0.0 0.0 0.00 0.00 0.00 74 1009.4
20180621002941 77 135 0.0 0.0 0.00 0.00 0.00 73 1009.5
20180621002433 77 135 0.0 0.0 0.00 0.00 0.00 73 1009.5
20180621001925 77 180 0.0 0.0 0.00 0.00 0.00 73 1009.6
20180621001345 78 180 0.0 0.0 0.00 0.00 0.00 72 1009.6
20180621000840 78 202 0.0 0.0 0.00 0.00 0.00 72 1009.6
20180621000330 78 180 0.0 0.0 0.00 0.00 0.00 72 1009.6
20180620235822 79 135 0.0 0.0 0.00 0.00 0.00 72 1009.6
20180620235314 79 135 0.0 0.0 0.00 0.00 0.00 71 1009.6
20180620234758 79 112 0.0 2.0 0.00 0.00 0.00 71 1009.6
20180620234233 79 180 0.0 3.0 0.00 0.00 0.00 71 1009.4
20180620233720 80 45 0.0 0.0 0.00 0.00 0.00 71 1009.4
20180620233156 80 180 0.0 0.0 0.00 0.00 0.00 71 1009.3
20180620232638 80 180 0.0 1.0 0.00 0.00 0.00 70 1009.3
20180620232128 80 180 0.0 2.0 0.00 0.00 0.00 70 1009.3
20180620231608 80 112 0.0 2.0 0.00 0.00 0.00 70 1009.2
20180620231104 81 180 0.0 0.0 0.00 0.00 0.00 69 1009.2
20180620230556 80 158 0.0 0.0 0.00 0.00 0.00 69 1009.3
20180620230055 81 112 0.0 0.0 0.00 0.00 0.00 69 1009.3
20180620225533 81 135 0.0 2.0 0.00 0.00 0.00 69 1009.2
20180620225029 82 135 0.0 2.0 0.00 0.00 0.00 68 1009.2
20180620224529 82 90 0.0 0.0 0.00 0.00 0.00 68 1009.2
20180620224023 82 90 0.0 1.0 0.00 0.00 0.00 68 1009.1
20180620223503 82 112 0.0 1.0 0.00 0.00 0.00 68 1009.1
20180620222946 82 158 0.0 0.0 0.00 0.00 0.00 68 1009.3
20180620222431 83 180 0.0 0.0 0.00 0.00 0.00 68 1009.3
20180620221931 83 180 0.0 0.0 0.00 0.00 0.00 68 1009.4
20180620221421 83 180 0.0 3.0 0.00 0.00 0.00 66 1009.4
20180620220918 84 180 0.0 3.0 0.00 0.00 0.00 64 1009.4
20180620220353 85 112 1.0 2.0 0.00 0.00 0.00 63 1009.4
20180620215850 86 180 0.0 2.0 0.00 0.00 0.00 63 1009.4
20180620215349 86 112 0.0 2.0 0.00 0.00 0.00 63 1009.4
20180620214830 86 0 0.0 0.0 0.00 0.00 0.00 62 1009.4
20180620214311 87 180 0.0 0.0 0.00 0.00 0.00 61 1009.6
20180620213802 87 158 0.0 1.0 0.00 0.00 0.00 62 1009.6
20180620213258 87 180 0.0 2.0 0.00 0.00 0.00 60 1009.6
20180620212757 88 180 0.0 3.0 0.00 0.00 0.00 60 1009.6
20180620212220 89 180 1.0 3.0 0.00 0.00 0.00 58 1009.6
20180620211716 91 112 1.0 2.0 0.00 0.00 0.00 55 1009.6
20180620211209 91 112 0.0 3.0 0.00 0.00 0.00 56 1009.6
20180620210657 92 180 1.0 3.0 0.00 0.00 0.00 55 1009.4
20180620210147 93 180 2.0 4.0 0.00 0.00 0.00 54 1009.4
20180620205640 93 158 2.0 4.0 0.00 0.00 0.00 54 1009.5
20180620205123 92 112 0.0 0.0 0.00 0.00 0.00 57 1009.5
20180620204611 89 112 0.0 2.0 0.00 0.00 0.00 61 1009.5
20180620204102 88 0 0.0 2.0 0.00 0.00 0.00 61 1009.7
20180620203540 88 45 0.0 0.0 0.00 0.00 0.00 61 1009.7
20180620203026 88 112 0.0 4.0 0.00 0.00 0.00 61 1009.9
20180620202507 89 202 1.0 4.0 0.00 0.00 0.00 60 1009.9
20180620201958 91 68 1.0 2.0 0.00 0.00 0.00 56 1009.9
20180620201456 92 112 0.0 3.0 0.00 0.00 0.00 56 1009.9
20180620200946 91 90 1.0 3.0 0.00 0.00 0.00 56 1009.9
20180620200438 91 248 0.0 3.0 0.00 0.00 0.00 56 1010.1
20180620195926 92 158 1.0 3.0 0.00 0.00 0.00 53 1010.1
20180620195407 93 90 1.0 3.0 0.00 0.00 0.00 54 1010.1
20180620194859 92 202 1.0 4.0 0.00 0.00 0.00 56 1010.1
20180620194355 92 68 2.0 5.0 0.00 0.00 0.00 55 1010.4
20180620193846 91 180 2.0 5.0 0.00 0.00 0.00 57 1010.4
20180620193324 88 112 0.0 3.0 0.00 0.00 0.00 63 1010.4
20180620192805 89 158 1.0 3.0 0.00 0.00 0.00 62 1010.6
20180620192255 88 112 2.0 3.0 0.00 0.00 0.00 61 1010.6
20180620191751 87 180 1.0 2.0 0.00 0.00 0.00 66 1010.7
20180620191248 86 112 0.0 2.0 0.00 0.00 0.00 67 1010.7
20180620190740 85 112 0.0 2.0 0.00 0.00 0.00 68 1010.7
20180620190235 85 202 0.0 0.0 0.00 0.00 0.00 67 1010.7
20180620185721 86 158 0.0 0.0 0.00 0.00 0.00 67 1010.7
20180620185204 85 112 0.0 2.0 0.00 0.00 0.00 67 1010.8
20180620184655 86 180 0.0 2.0 0.00 0.00 0.00 66 1010.8
20180620184154 86 90 0.0 2.0 0.00 0.00 0.00 66 1010.9
20180620183641 86 90 0.0 2.0 0.00 0.00 0.00 65 1010.9
20180620183130 86 112 0.0 3.0 0.00 0.00 0.00 65 1010.9
20180620182621 87 90 1.0 3.0 0.00 0.00 0.00 64 1010.9
20180620182059 87 112 1.0 3.0 0.00 0.00 0.00 63 1010.9
20180620181551 87 112 1.0 3.0 0.00 0.00 0.00 62 1010.9
20180620181045 87 202 1.0 3.0 0.00 0.00 0.00 63 1010.9
20180620180535 87 112 2.0 4.0 0.00 0.00 0.00 63 1010.9
20180620180031 89 292 2.0 5.0 0.00 0.00 0.00 62 1010.9
20180620175531 89 135 2.0 5.0 0.00 0.00 0.00 59 1011.1
20180620175027 89 90 1.0 6.0 0.00 0.00 0.00 59 1011.1
20180620174528 90 135 2.0 6.0 0.00 0.00 0.00 58 1011.1
20180620174005 91 202 2.0 5.0 0.00 0.00 0.00 58 1011.2
20180620173457 91 180 2.0 3.0 0.00 0.00 0.00 57 1011.2
20180620172955 90 135 2.0 3.0 0.00 0.00 0.00 58 1011.3
20180620172430 90 112 1.0 4.0 0.00 0.00 0.00 57 1011.3
20180620171924 90 112 2.0 4.0 0.00 0.00 0.00 57 1011.3
20180620171425 92 180 2.0 4.0 0.00 0.00 0.00 53 1011.3
20180620170906 95 292 1.0 3.0 0.00 0.00 0.00 48 1011.3
20180620170357 99 135 2.0 3.0 0.00 0.00 0.00 41 1011.4
20180620165837 98 338 2.0 3.0 0.00 0.00 0.00 39 1011.4
20180620165328 98 180 2.0 4.0 0.00 0.00 0.00 42 1011.7
20180620164817 95 158 1.0 5.0 0.00 0.00 0.00 44 1011.7
20180620164305 97 22 2.0 4.0 0.00 0.00 0.00 41 1011.8
20180620163804 97 68 2.0 4.0 0.00 0.00 0.00 43 1011.8
20180620163255 96 292 2.0 3.0 0.00 0.00 0.00 45 1011.8
20180620162753 96 158 1.0 3.0 0.00 0.00 0.00 43 1011.8
20180620162240 96 135 2.0 3.0 0.00 0.00 0.00 43 1011.8
20180620161736 94 22 1.0 4.0 0.00 0.00 0.00 44 1012.0
20180620161221 95 292 2.0 4.0 0.00 0.00 0.00 44 1012.0
20180620160708 96 112 2.0 4.0 0.00 0.00 0.00 45 1012.1
20180620160155 96 0 2.0 4.0 0.00 0.00 0.00 45 1012.1
20180620155648 95 0 1.0 3.0 0.00 0.00 0.00 46 1012.1
20180620155125 93 68 1.0 3.0 0.00 0.00 0.00 50 1012.2
20180620154616 93 225 2.0 3.0 0.00 0.00 0.00 52 1012.2
20180620154057 92 90 2.0 3.0 0.00 0.00 0.00 51 1012.4
20180620153543 92 135 1.0 5.0 0.00 0.00 0.00 53 1012.4
20180620153041 91 180 1.0 5.0 0.00 0.00 0.00 54 1012.6
20180620152512 93 22 2.0 3.0 0.00 0.00 0.00 51 1012.6
20180620152003 91 158 2.0 4.0 0.00 0.00 0.00 55 1012.6
20180620151446 90 315 2.0 3.0 0.00 0.00 0.00 55 1012.6
20180620150932 89 45 2.0 2.0 0.00 0.00 0.00 58 1012.6
20180620150427 87 45 1.0 2.0 0.00 0.00 0.00 59 1012.7
20180620145901 85 45 0.0 2.0 0.00 0.00 0.00 62 1012.7
20180620145351 85 202 1.0 2.0 0.00 0.00 0.00 62 1012.8
20180620144829 85 112 0.0 2.0 0.00 0.00 0.00 62 1012.8
20180620144319 85 112 1.0 3.0 0.00 0.00 0.00 60 1012.8
20180620143816 85 90 0.0 3.0 0.00 0.00 0.00 62 1012.8
20180620143306 85 135 0.0 1.0 0.00 0.00 0.00 61 1012.8
20180620142757 85 135 0.0 2.0 0.00 0.00 0.00 61 1012.8
20180620142247 84 112 0.0 2.0 0.00 0.00 0.00 61 1012.8
20180620141727 85 225 0.0 1.0 0.00 0.00 0.00 59 1012.8
20180620141209 84 202 0.0 3.0 0.00 0.00 0.00 60 1012.8
20180620140652 84 0 1.0 3.0 0.00 0.00 0.00 58 1012.8
20180620140144 83 180 0.0 0.0 0.00 0.00 0.00 63 1012.8
20180620135638 83 180 0.0 0.0 0.00 0.00 0.00 61 1013.0
20180620135116 81 180 0.0 2.0 0.00 0.00 0.00 62 1013.0
20180620134559 81 248 0.0 2.0 0.00 0.00 0.00 62 1013.0
20180620134046 79 45 0.0 3.0 0.00 0.00 0.00 62 1013.2
20180620133526 78 315 1.0 3.0 0.00 0.00 0.00 65 1013.2
20180620133008 76 22 1.0 2.0 0.00 0.00 0.00 68 1013.2
20180620132501 76 22 0.0 0.0 0.00 0.00 0.00 69 1013.2
20180620131949 76 22 0.0 2.0 0.00 0.00 0.00 69 1013.3
20180620131428 76 202 0.0 2.0 0.00 0.00 0.00 68 1013.3
20180620130916 76 45 0.0 0.0 0.00 0.00 0.00 69 1013.3
20180620130356 75 68 0.0 3.0 0.00 0.00 0.00 69 1013.2
20180620125846 74 292 0.0 3.0 0.00 0.00 0.00 70 1013.2
20180620125343 74 22 0.0 0.0 0.00 0.00 0.00 72 1013.1
20180620124801 74 225 0.0 0.0 0.00 0.00 0.00 72 1013.1
20180620124244 73 22 0.0 0.0 0.00 0.00 0.00 73 1013.1
20180620123730 73 225 0.0 0.0 0.00 0.00 0.00 77 1013.1
20180620123212 72 112 0.0 0.0 0.00 0.00 0.00 75 1013.1
20180620122702 71 90 0.0 0.0 0.00 0.00 0.00 75 1013.1
20180620122152 70 180 0.0 0.0 0.00 0.00 0.00 75 1013.1
20180620121618 70 158 0.0 0.0 0.00 0.00 0.00 75 1013.2
20180620121041 70 112 0.0 0.0 0.00 0.00 0.00 75 1013.2
20180620120533 69 135 0.0 2.0 0.00 0.00 0.00 75 1013.2
20180620120016 69 90 0.0 2.0 0.00 0.00 0.00 76 1013.2
20180620115506 69 68 1.0 3.0 0.00 0.00 0.00 76 1013.2
20180620115001 68 270 0.0 2.0 0.00 0.00 0.00 77 1013.2
20180620114453 68 315 0.0 0.0 0.00 0.00 0.00 80 1013.2
20180620113949 67 68 0.0 0.0 0.00 0.00 0.00 80 1013.1
20180620113436 67 270 0.0 0.0 0.00 0.00 0.00 81 1013.1
20180620112903 67 180 0.0 0.0 0.00 0.00 0.00 81 1013.0
20180620112336 66 45 0.0 0.0 0.00 0.00 0.00 81 1013.0
20180620111812 66 22 0.0 0.0 0.00 0.00 0.00 81 1013.0
20180620111251 65 338 0.0 0.0 0.00 0.00 0.00 82 1013.0
20180620110746 65 22 0.0 0.0 0.00 0.00 0.00 82 1013.0
20180620110235 65 180 0.0 0.0 0.00 0.00 0.00 81 1013.0
20180620105717 65 180 0.0 0.0 0.00 0.00 0.00 81 1013.0
20180620105202 65 338 0.0 0.0 0.00 0.00 0.00 82 1012.9
20180620104614 65 338 0.0 0.0 0.00 0.00 0.00 82 1012.9
20180620104103 65 45 0.0 0.0 0.00 0.00 0.00 81 1012.8
20180620103601 65 112 0.0 0.0 0.00 0.00 0.00 81 1012.8
20180620103045 65 112 0.0 0.0 0.00 0.00 0.00 82 1012.9
20180620102510 65 112 0.0 0.0 0.00 0.00 0.00 83 1012.9
20180620101946 65 135 0.0 0.0 0.00 0.00 0.00 83 1012.8
20180620101443 64 248 0.0 0.0 0.00 0.00 0.00 83 1012.8
20180620100944 64 202 0.0 0.0 0.00 0.00 0.00 83 1012.8
20180620100441 64 68 0.0 0.0 0.00 0.00 0.00 83 1012.8
20180620095901 63 90 0.0 0.0 0.00 0.00 0.00 83 1012.8
20180620095356 63 90 0.0 0.0 0.00 0.00 0.00 83 1012.6
20180620094832 63 90 0.0 0.0 0.00 0.00 0.00 84 1012.6
20180620094322 63 112 0.0 0.0 0.00 0.00 0.00 84 1012.6
20180620093808 64 112 0.0 0.0 0.00 0.00 0.00 84 1012.6
20180620093252 64 45 0.0 0.0 0.00 0.00 0.00 83 1012.6
20180620092732 64 135 0.0 0.0 0.00 0.00 0.00 82 1012.6
20180620092213 64 225 0.0 0.0 0.00 0.00 0.00 81 1012.6
20180620091127 64 225 0.0 0.0 0.00 0.00 0.00 81 1012.6
20180620090549 64 202 0.0 0.0 0.00 0.00 0.00 82 1012.5
20180620090025 64 202 0.0 0.0 0.00 0.00 0.00 82 1012.5
20180620085516 64 158 0.0 0.0 0.00 0.00 0.00 82 1012.4
20180620084956 64 135 0.0 0.0 0.00 0.00 0.00 82 1012.4
20180620084446 64 135 0.0 0.0 0.00 0.00 0.00 81 1012.4
20180620083942 64 135 0.0 0.0 0.00 0.00 0.00 80 1012.4
20180620083416 64 180 0.0 0.0 0.00 0.00 0.00 80 1012.4
20180620082907 64 202 0.0 0.0 0.00 0.00 0.00 80 1012.4
20180620082347 64 202 0.0 0.0 0.00 0.00 0.00 81 1012.4
20180620081845 65 225 0.0 0.0 0.00 0.00 0.00 81 1012.2
20180620081334 65 202 0.0 0.0 0.00 0.00 0.00 82 1012.2
20180620080833 65 202 0.0 0.0 0.00 0.00 0.00 82 1012.2
20180620080326 65 180 0.0 0.0 0.00 0.00 0.00 82 1012.1
20180620075811 64 248 0.0 0.0 0.00 0.00 0.00 82 1012.1
20180620075302 65 202 0.0 0.0 0.00 0.00 0.00 81 1012.1
20180620074736 65 180 0.0 0.0 0.00 0.00 0.00 81 1012.1
20180620074228 65 225 0.0 0.0 0.00 0.00 0.00 81 1012.1
20180620073658 65 180 0.0 0.0 0.00 0.00 0.00 81 1012.1
20180620073158 65 158 0.0 0.0 0.00 0.00 0.00 81 1012.1
20180620072654 65 180 0.0 0.0 0.00 0.00 0.00 81 1012.1
20180620072143 65 202 0.0 0.0 0.00 0.00 0.00 81 1012.1
20180620071634 65 225 0.0 0.0 0.00 0.00 0.00 81 1012.4
20180620071125 65 225 0.0 0.0 0.00 0.00 0.00 81 1012.4
20180620070604 65 202 0.0 0.0 0.00 0.00 0.00 80 1012.3
20180620070055 65 202 0.0 0.0 0.00 0.00 0.00 81 1012.3
20180620065550 65 202 0.0 0.0 0.00 0.00 0.00 81 1012.4
20180620065040 65 270 0.0 0.0 0.00 0.00 0.00 82 1012.4
20180620064538 66 202 0.0 0.0 0.00 0.00 0.00 82 1012.4
20180620064025 66 158 0.0 0.0 0.00 0.00 0.00 82 1012.5
20180620063455 66 248 0.0 0.0 0.00 0.00 0.00 82 1012.5
20180620062954 66 270 0.0 0.0 0.00 0.00 0.00 83 1012.4
20180620062450 66 202 0.0 0.0 0.00 0.00 0.00 84 1012.4
20180620061928 66 248 0.0 0.0 0.00 0.00 0.00 85 1012.4
20180620061416 66 248 0.0 0.0 0.00 0.00 0.00 84 1012.4
20180620060854 66 202 0.0 0.0 0.00 0.00 0.00 84 1012.4
20180620060848 66 225 0.0 0.0 0.00 0.00 0.00 84 1012.4
20180620055810 66 202 0.0 0.0 0.00 0.00 0.00 84 1012.4
20180620055259 67 180 0.0 0.0 0.00 0.00 0.00 84 1012.5
20180620054744 67 225 0.0 0.0 0.00 0.00 0.00 84 1012.5
20180620054227 67 180 0.0 0.0 0.00 0.00 0.00 84 1012.5
20180620053720 67 225 0.0 0.0 0.00 0.00 0.00 84 1012.5
20180620053159 67 248 0.0 0.0 0.00 0.00 0.00 82 1012.5
20180620052644 67 45 0.0 0.0 0.00 0.00 0.00 81 1012.5
20180620052108 67 158 0.0 0.0 0.00 0.00 0.00 81 1012.5
20180620051541 67 22 0.0 0.0 0.00 0.00 0.00 82 1012.6
20180620051025 67 202 0.0 0.0 0.00 0.00 0.00 81 1012.6
20180620050511 67 270 0.0 0.0 0.00 0.00 0.00 80 1012.6
20180620045956 67 112 0.0 0.0 0.00 0.00 0.00 81 1012.6
20180620045452 67 112 0.0 0.0 0.00 0.00 0.00 81 1012.6
20180620044943 68 22 0.0 0.0 0.00 0.00 0.00 80 1012.6
20180620044421 68 68 0.0 0.0 0.00 0.00 0.00 80 1012.6
20180620043900 68 45 0.0 0.0 0.00 0.00 0.00 80 1012.5
20180620043323 68 112 0.0 0.0 0.00 0.00 0.00 79 1012.5
20180620042816 68 270 0.0 0.0 0.00 0.00 0.00 79 1012.4
20180620042237 68 112 0.0 0.0 0.00 0.00 0.00 78 1012.4
20180620041728 69 45 0.0 0.0 0.00 0.00 0.00 78 1012.5
20180620041224 69 90 0.0 0.0 0.00 0.00 0.00 79 1012.5
20180620040713 69 90 0.0 0.0 0.00 0.00 0.00 79 1012.4
20180620040203 69 90 0.0 0.0 0.00 0.00 0.00 79 1012.4
20180620035627 70 338 0.0 0.0 0.00 0.00 0.00 77 1012.2
20180620035119 70 270 0.0 0.0 0.00 0.00 0.00 77 1012.2
20180620034616 70 22 0.0 0.0 0.00 0.00 0.00 77 1012.2
20180620034034 70 180 0.0 0.0 0.00 0.00 0.00 77 1012.3
20180620033513 70 180 0.0 0.0 0.00 0.00 0.00 78 1012.3
20180620032953 70 248 0.0 0.0 0.00 0.00 0.00 78 1012.2
20180620032438 70 225 0.0 0.0 0.00 0.00 0.00 78 1012.2
20180620031929 70 225 0.0 0.0 0.00 0.00 0.00 78 1012.3
20180620031424 70 225 0.0 0.0 0.00 0.00 0.00 78 1012.3
20180620030859 71 202 0.0 0.0 0.00 0.00 0.00 78 1012.3
20180620030326 71 158 0.0 0.0 0.00 0.00 0.00 78 1012.4
20180620025816 71 180 0.0 0.0 0.00 0.00 0.00 77 1012.4
20180620025311 71 202 0.0 0.0 0.00 0.00 0.00 76 1012.5